Regional Weather Roundup
Issued by NWS Cleveland, OH

Home | Current Version | Previous Version | Graphics & Text | Print | Product List | Glossary On
Versions: 1 2 3 4 5 6 7 8 9 10 11 12 13 14 15 16 17 18 19 20 21 22 23 24 25 26 27 28 29 30 31 32 33 34 35 36 37 38 39 40 41 42 43 44 45 46 47 48 49 50
649
ASUS41 KCLE 060102
RWRCLE
OHIO REGIONAL WEATHER ROUNDUP
NATIONAL WEATHER SERVICE CLEVELAND, OH
800 PM EST MON DEC 05 2016

NOTE: "FAIR" INDICATES FEW OR NO CLOUDS BELOW 12,000 FEET WITH NO
SIGNIFICANT WEATHER AND/OR OBSTRUCTIONS TO VISIBILITY.

OHZ001>008-015>018-024>027-034-035-043-044-060200-
   NORTHWEST OHIO

CITY           SKY/WX    TMP DP  RH WIND       PRES   REMARKS
DEFIANCE       PTCLDY    30  26  85 E3        30.05F
FINDLAY        CLOUDY    32  26  78 E7        30.05F WCI  26
TOLEDO EXPRESS CLOUDY    28  28 100 CALM      30.06F
TOLEDO EXEC    CLEAR     30  28  92 SE6       30.08S WCI  24
LIMA           CLEAR     30  28  92 E7        30.04S WCI  23
$$

OHZ009>014-019>023-028>033-038-089-060200-
   NORTHEAST OHIO

CITY           SKY/WX    TMP DP  RH WIND       PRES   REMARKS
CLE-HOPKINS    PTCLDY    33  27  78 CALM      30.11S
CLE-LAKEFRONT  CLEAR     38  28  67 CALM      30.09R
CUY CO. ARPT   CLEAR     30  28  93 S6        30.09S WCI  24
LORAIN-ELYRIA  CLEAR     32  26  78 SE5       30.09R WCI  27
ASHTABULA      CLEAR     30  28  92 CALM      30.11R
AKRON-CANTON   CLOUDY    34  27  75 CALM      30.08S
WOOSTER        CLEAR     29  25  85 CALM      30.08S
MANSFIELD      CLOUDY    28  26  92 E6        30.06F WCI  22
YOUNGSTOWN     PTCLDY    33  27  78 CALM      30.09R
$$

OHZ042-051>053-060>062-070>072-077>081-060200-
  SOUTHWEST OHIO

CITY           SKY/WX    TMP DP  RH WIND       PRES   REMARKS
CINC-COVINGTON CLOUDY    41  34  76 E9        29.97F
CINC-LUNKEN    CLOUDY    37  34  89 NE7       30.01F
HAMILTON       CLOUDY    38  32  79 E9        30.01F
DAYTON         CLOUDY    33  30  88 E8        30.03F WCI  26
WRIGHT-PAT AFB CLOUDY    33  31  90 NE3       30.02F
DAYTON GENERAL CLOUDY    36  30  79 E7        30.01F
WILMINGTON     PTCLDY    35  31  85 E9        30.01F WCI  28
$$

OHZ036-037-039>041-045>050-054>059-063>069-073>076-082>088-060200-
  CENTRAL AND SOUTHEAST OHIO

CITY           SKY/WX    TMP DP  RH WIND       PRES   REMARKS
COLUMBUS       CLOUDY    35  31  85 E3        30.06S
OSU AIRPORT    CLOUDY    34  29  82 E3        30.06R
BOLTON FIELD   NOT AVBL
RICKENBACK AFB CLOUDY    33  30  89 E5        30.06F WCI  28
NEWARK         PTCLDY    31  27  85 CALM      30.06S
MARION         CLOUDY    29  26  89 E6        30.06F WCI  23
LANCASTER      CLOUDY    32  29  88 NE5       30.06F WCI  27
ZANESVILLE     PTCLDY    36  28  73 NE3       30.07S
NEW PHILLY     PTCLDY    30  28  92 CALM      30.10S
$$




USA.gov is the U.S. government's official web portal to all federal, state and local government web resources and services.